Location: Newark
(13.8117°N, 3.6025°W)
Time: 09:57:36
(UTC+00:00)

Courier 1B Rocket - Visible Passes

Search period start: 26 August 2019 00:00
Search period end: 05 September 2019 00:00
Orbit: 920 x 1202 km, 28.2° (Epoch: 25 August)

Date Brightness Start Highest point End Pass type
(mag) Time Alt. Az. Time Alt. Az. Time Alt. Az.
26 Aug 7.6 02:16:57 15° NE 02:16:57 15° NE 02:18:19 10° NE visible
26 Aug 6.9 04:03:20 19° NW 04:06:48 26° N 04:13:01 10° NE visible
27 Aug 6.9 03:06:07 25° N 03:06:07 25° N 03:11:10 10° NE visible
27 Aug 6.8 04:53:39 10° NW 05:00:10 31° NNE 05:06:54 10° ENE visible
28 Aug 7.8 02:08:57 12° NE 02:08:57 12° NE 02:09:30 10° NE visible
28 Aug 6.8 03:55:19 20° NNW 03:58:30 27° N 04:04:48 10° ENE visible
29 Aug 7.0 02:58:13 23° NNE 02:58:13 23° NNE 03:02:46 10° NE visible
29 Aug 6.5 04:44:57 10° NW 04:51:43 37° NNE 04:58:47 10° E visible
29 Aug 6.6 20:08:49 10° SSW 20:11:01 18° S 20:11:01 18° S visible
30 Aug 6.6 03:47:34 25° NNW 03:50:09 30° NNE 03:56:41 10° ENE visible
30 Aug 5.9 05:37:10 10° WNW 05:44:36 63° NNE 05:52:21 10° ESE visible
30 Aug 6.6 19:09:33 10° S 19:12:29 13° SSE 19:14:25 12° SE visible
30 Aug 7.0 20:59:40 10° SW 21:00:50 16° SW 21:00:50 16° SW visible
31 Aug 7.1 02:50:37 23° NNE 02:50:37 23° NNE 02:54:33 10° ENE visible
31 Aug 6.1 04:37:01 14° NW 04:43:11 47° NNE 04:50:34 10° E visible
31 Aug 5.6 19:59:11 10° SW 20:04:14 35° SSE 20:04:14 35° SSE visible
01 Sep 6.3 03:40:09 33° N 03:41:43 37° NNE 03:48:35 10° E visible
01 Sep 5.5 05:28:26 10° WNW 05:35:52 86° NNE 05:43:42 10° ESE visible
01 Sep 6.1 18:59:03 10° SSW 19:03:51 23° SSE 19:07:38 13° ESE visible
01 Sep 6.2 20:50:51 10° WSW 20:54:03 32° WSW 20:54:03 32° WSW visible
02 Sep 7.2 02:43:21 22° NE 02:43:21 22° NE 02:46:28 10° ENE visible
02 Sep 5.6 04:29:46 23° NW 04:34:32 63° NNE 04:42:08 10° ESE visible
02 Sep 4.9 19:50:01 10° SW 19:56:09 57° SSE 19:57:26 48° ESE visible
02 Sep 7.6 21:43:40 10° W 21:43:51 11° W 21:43:51 11° W visible
03 Sep 5.9 03:33:03 47° NNE 03:33:12 47° NNE 03:40:20 10° E visible
03 Sep 5.4 05:19:50 10° WNW 05:27:05 67° SSW 05:34:46 10° SE visible
03 Sep 5.6 18:49:24 10° SW 18:55:12 37° SSE 19:00:47 10° E visible
03 Sep 5.5 20:42:20 10° WSW 20:47:11 51° WNW 20:47:11 51° WNW visible
04 Sep 7.4 02:36:25 18° ENE 02:36:25 18° ENE 02:38:22 10° E visible
04 Sep 5.2 04:22:49 39° WNW 04:25:50 88° NNE 04:33:28 10° ESE visible
04 Sep 4.8 19:41:10 10° WSW 19:47:31 88° SSE 19:50:28 33° ENE visible
04 Sep 7.3 21:35:38 10° W 21:36:53 16° WNW 21:36:53 16° WNW visible
